Mount Sterling, KY

6:01 PM EDT on May 26, 2018 (GMT -0400)
Mount Sterling-Montgomery County

Weather History for KIOB - March, 2013

Change the Weather History Date:

Sunday, March 17, 2013

  Actual Average Record
Temperature  
Mean Temperature 37 °F -  
Max Temperature 42 °F 55 °F 62 °F (2016)
Min Temperature 32 °F 31 °F 23 °F (2017)
Degree Days  
Heating Degree Days 28    
Moisture  
Dew Point 34 °F    
Average Humidity 96    
Maximum Humidity 100    
Minimum Humidity 81    
Precipitation  
Precipitation 0.00 in - - ()
Sea Level Pressure  
Sea Level Pressure 30.04 in    
Wind  
Wind Speed 9 mph (ENE)    
Max Wind Speed 14 mph    
Max Gust Speed 20 mph    
Visibility 6 miles    
Events Rain    
Averages and records for this station are not official NWS values.
T = Trace of Precipitation, MM = Missing Value Source: NWS Daily Summary

Daily Weather History Graph

Daily Weather History Graph

Search for Another Location

Airport or City:

Astronomy

Mar. 17, 2013 Rise Set
Actual Time 7:43 AM EDT 7:45 PM EDT
Civil Twilight 7:17 AM EDT 8:11 PM EDT
Nautical Twilight 6:46 AM EDT 8:42 PM EDT
Astronomical Twilight 6:15 AM EDT 9:13 PM EDT
Moon 11:00 AM EDT (3/17) 12:47 AM EDT (3/17)
Length of Visible Light 12h 54m
Length of Day
12h 01m
Waxing Crescent, 31% of the Moon is Illuminated
Mar 17
Waxing Crescent
Mar 19
First Quarter
Mar 27
Full
Apr 3
Last Quarter
Apr 10
New

Hourly Weather History & Observations

Time (EDT) Temp. Windchill Dew Point Humidity Pressure Visibility Wind Dir Wind Speed Gust Speed Precip Events Conditions
12:15 AM 42.8 °F 39.3 °F 37.4 °F 81% 30.00 in 7.0 mi NE 5.8 mph - N/A Rain Light Rain
12:35 AM 41.0 °F 36.4 °F 37.4 °F 87% 30.00 in 7.0 mi NE 6.9 mph - N/A   Overcast
12:55 AM 41.0 °F 35.2 °F 37.4 °F 87% 30.00 in 7.0 mi NE 9.2 mph - N/A Rain Light Rain
1:15 AM 41.0 °F 35.2 °F 37.4 °F 87% 30.00 in 7.0 mi NE 9.2 mph - N/A Rain Light Rain
1:35 AM 41.0 °F 36.4 °F 37.4 °F 87% 30.00 in 7.0 mi ENE 6.9 mph - N/A Rain Light Rain
1:55 AM 41.0 °F 35.8 °F 37.4 °F 87% 30.00 in 7.0 mi ENE 8.1 mph - N/A   Drizzle
2:15 AM 41.0 °F 35.2 °F 37.4 °F 87% 29.99 in 7.0 mi East 9.2 mph - N/A   Overcast
2:35 AM 41.0 °F 34.7 °F 37.4 °F 87% 29.98 in 7.0 mi ENE 10.4 mph - N/A   Overcast
2:55 AM 41.0 °F 35.8 °F 37.4 °F 87% 29.98 in 7.0 mi East 8.1 mph - N/A   Overcast
3:15 AM 39.2 °F 32.5 °F 35.6 °F 87% 29.98 in 7.0 mi ENE 10.4 mph - N/A   Overcast
3:35 AM 37.4 °F 31.4 °F 35.6 °F 93% 29.99 in 10.0 mi East 8.1 mph - N/A   Mostly Cloudy
3:55 AM 37.4 °F - 35.6 °F 93% 30.00 in 10.0 mi Calm Calm - N/A   Overcast
4:15 AM 37.4 °F 32.1 °F 35.6 °F 93% 30.00 in 10.0 mi NE 6.9 mph - N/A   Overcast
4:35 AM 37.4 °F 32.8 °F 35.6 °F 93% 30.00 in 10.0 mi NE 5.8 mph - N/A   Overcast
4:55 AM 37.4 °F 31.4 °F 33.8 °F 87% 29.99 in 10.0 mi NE 8.1 mph - N/A   Overcast
5:15 AM 37.4 °F 31.4 °F 33.8 °F 87% 29.98 in 10.0 mi NE 8.1 mph - N/A   Overcast
5:55 AM 37.4 °F 32.8 °F 33.8 °F 87% 30.03 in 10.0 mi NE 5.8 mph - N/A   Drizzle
6:15 AM 35.6 °F 30.7 °F 33.8 °F 93% 30.03 in 10.0 mi NE 5.8 mph - N/A Rain Rain
6:35 AM 35.6 °F 29.9 °F 33.8 °F 93% 30.04 in 7.0 mi NE 6.9 mph - N/A Rain Light Rain
6:55 AM 35.6 °F 30.7 °F 33.8 °F 93% 30.07 in 7.0 mi NE 5.8 mph - N/A Rain Light Rain
7:15 AM 35.6 °F 28.6 °F 33.8 °F 93% 30.06 in 5.0 mi NE 9.2 mph - N/A Rain Rain
7:35 AM 35.6 °F 27.1 °F 33.8 °F 93% 30.07 in 5.0 mi NE 12.7 mph - N/A   Drizzle
7:55 AM 35.6 °F 29.2 °F 33.8 °F 93% 30.09 in 7.0 mi NE 8.1 mph - N/A Rain Rain
8:15 AM 33.8 °F 26.4 °F 33.8 °F 100% 30.09 in 5.0 mi ENE 9.2 mph - N/A Rain Light Rain
8:35 AM 33.8 °F 26.4 °F 33.8 °F 100% 30.10 in 5.0 mi ENE 9.2 mph - N/A Rain Light Rain
8:55 AM 33.8 °F 25.8 °F 32.0 °F 93% 30.09 in 3.0 mi East 10.4 mph - N/A   Drizzle
9:15 AM 33.8 °F 25.8 °F 32.0 °F 93% 30.11 in 3.0 mi ENE 10.4 mph - N/A Rain Rain
9:35 AM 32.0 °F 23.6 °F 32.0 °F 100% 30.11 in 2.5 mi ENE 10.4 mph - N/A Rain Light Rain
9:55 AM 32.0 °F 24.2 °F 32.0 °F 100% 30.10 in 4.0 mi ENE 9.2 mph 16.1 mph N/A   Drizzle
10:15 AM 33.8 °F 26.4 °F 32.0 °F 93% 30.09 in 7.0 mi East 9.2 mph - N/A   Light Drizzle
10:35 AM 33.8 °F 26.4 °F 32.0 °F 93% 30.10 in 2.0 mi ENE 9.2 mph - N/A   Heavy Drizzle
10:55 AM 33.8 °F 25.3 °F 33.8 °F 100% 30.09 in 2.0 mi ENE 11.5 mph - N/A   Heavy Drizzle
11:15 AM 33.8 °F 26.4 °F 33.8 °F 100% 30.09 in 3.0 mi East 9.2 mph - N/A   Drizzle
11:35 AM 33.8 °F 26.4 °F 33.8 °F 100% 30.10 in 3.0 mi East 9.2 mph - N/A   Drizzle
11:55 AM 33.8 °F 25.8 °F 33.8 °F 100% 30.11 in 2.0 mi ENE 10.4 mph - N/A   Heavy Drizzle
12:15 PM 33.8 °F 25.3 °F 33.8 °F 100% 30.10 in 2.0 mi East 11.5 mph - N/A   Drizzle
12:35 PM 33.8 °F 26.4 °F 33.8 °F 100% 30.10 in 2.5 mi East 9.2 mph - N/A   Drizzle
12:55 PM 33.8 °F 25.3 °F 33.8 °F 100% 30.09 in 2.5 mi East 11.5 mph 17.3 mph N/A   Drizzle
1:15 PM 33.8 °F 27.0 °F 33.8 °F 100% 30.08 in 3.0 mi East 8.1 mph - N/A   Drizzle
1:35 PM 33.8 °F 26.4 °F 33.8 °F 100% 30.09 in 10.0 mi ENE 9.2 mph 16.1 mph N/A   Overcast
1:55 PM 33.8 °F 25.8 °F 33.8 °F 100% 30.08 in 7.0 mi ENE 10.4 mph - N/A   Overcast
2:15 PM 33.8 °F 25.8 °F 33.8 °F 100% 30.08 in 3.0 mi East 10.4 mph - N/A   Drizzle
2:35 PM 33.8 °F 25.8 °F 33.8 °F 100% 30.07 in 4.0 mi East 10.4 mph - N/A   Light Drizzle
2:55 PM 33.8 °F 25.3 °F 33.8 °F 100% 30.06 in 4.0 mi East 11.5 mph - N/A   Drizzle
3:15 PM 33.8 °F 26.4 °F 33.8 °F 100% 30.06 in 2.5 mi ENE 9.2 mph - N/A   Drizzle
3:35 PM 33.8 °F 24.8 °F 33.8 °F 100% 30.06 in 4.0 mi ENE 12.7 mph - N/A Rain Rain
3:55 PM 33.8 °F 26.4 °F 32.0 °F 93% 30.06 in 2.5 mi ENE 9.2 mph - N/A Rain Rain
4:15 PM 33.8 °F 25.8 °F 33.8 °F 100% 30.06 in 2.0 mi ENE 10.4 mph - N/A Rain Rain
4:35 PM 33.8 °F 24.8 °F 33.8 °F 100% 30.04 in 3.0 mi East 12.7 mph - N/A Rain Heavy Rain
4:55 PM 33.8 °F 24.3 °F 33.8 °F 100% 30.04 in 3.0 mi East 13.8 mph 17.3 mph N/A Rain Rain
5:15 PM 33.8 °F 24.8 °F 33.8 °F 100% 30.03 in 4.0 mi East 12.7 mph 16.1 mph N/A Rain Light Rain
5:35 PM 33.8 °F 24.8 °F 33.8 °F 100% 30.03 in 4.0 mi East 12.7 mph - N/A Rain Heavy Rain
5:55 PM 33.8 °F 25.3 °F 33.8 °F 100% 30.03 in 3.0 mi East 11.5 mph - N/A Rain Light Rain
6:15 PM 33.8 °F 26.4 °F 33.8 °F 100% 30.02 in 4.0 mi East 9.2 mph - N/A Rain Heavy Rain
6:35 PM 33.8 °F 24.8 °F 33.8 °F 100% 30.02 in 4.0 mi East 12.7 mph 17.3 mph N/A Rain Rain
6:55 PM 33.8 °F 25.3 °F 33.8 °F 100% 30.01 in 5.0 mi East 11.5 mph 16.1 mph N/A Rain Light Rain
7:15 PM 33.8 °F 25.3 °F 33.8 °F 100% 30.00 in 7.0 mi East 11.5 mph - N/A Rain Rain
7:35 PM 33.8 °F 24.3 °F 33.8 °F 100% 30.00 in 7.0 mi East 13.8 mph 17.3 mph N/A   Drizzle
7:55 PM 33.8 °F 24.8 °F 33.8 °F 100% 30.00 in 5.0 mi East 12.7 mph - N/A Rain Light Rain
8:15 PM 33.8 °F 25.3 °F 33.8 °F 100% 30.01 in 5.0 mi East 11.5 mph - N/A   Drizzle
8:35 PM 33.8 °F 25.3 °F 33.8 °F 100% 30.02 in 7.0 mi East 11.5 mph - N/A   Drizzle
8:55 PM 33.8 °F 25.8 °F 33.8 °F 100% 30.02 in 7.0 mi East 10.4 mph 16.1 mph N/A   Drizzle
9:15 PM 33.8 °F 24.8 °F 33.8 °F 100% 30.00 in 7.0 mi East 12.7 mph 18.4 mph N/A   Drizzle
9:35 PM 33.8 °F 25.3 °F 33.8 °F 100% 30.00 in 5.0 mi East 11.5 mph 16.1 mph N/A Rain Rain
9:55 PM 33.8 °F 25.8 °F 33.8 °F 100% 29.99 in 5.0 mi East 10.4 mph - N/A Rain Light Rain
10:15 PM 33.8 °F 24.3 °F 33.8 °F 100% 29.98 in 5.0 mi East 13.8 mph 18.4 mph N/A Rain Rain
10:35 PM 33.8 °F 25.8 °F 33.8 °F 100% 30.00 in 5.0 mi East 10.4 mph - N/A Rain Light Rain
10:55 PM 33.8 °F 24.8 °F 33.8 °F 100% 29.99 in 5.0 mi East 12.7 mph - N/A Rain Rain
11:15 PM 33.8 °F 25.3 °F 33.8 °F 100% 29.97 in 5.0 mi East 11.5 mph 19.6 mph N/A Rain Light Rain
11:35 PM 33.8 °F 25.8 °F 33.8 °F 100% 29.97 in 7.0 mi East 10.4 mph - N/A   Drizzle
11:55 PM 33.8 °F 25.8 °F 33.8 °F 100% 29.96 in 10.0 mi ESE 10.4 mph 18.4 mph N/A Rain Light Rain